Date_Time,Julian_Date,Latitude,Longitude,Instrument_Depth,U,V,Speed,Direction
(yyyy-mm-dd hh:mn:ss UTC),(JD),(+ deg. North),(+ deg. East),(m),(cm/s),(cm/s),(cm/s),(deg True)
1984-05-10 17:30:00 UTC,2445831.229167,29.6633,-93.3933,0082,8.78,8.18,12.0000,47.0000
1984-05-10 18:00:00 UTC,2445831.250000,29.6633,-93.3933,0082,8.78,6.62,11.0000,53.0000
1984-05-10 18:30:00 UTC,2445831.270833,29.6633,-93.3933,0082,9.12,6.15,11.0000,56.0000
1984-05-10 19:00:00 UTC,2445831.291667,29.6633,-93.3933,0082,9.12,6.15,11.0000,56.0000
1984-05-10 19:30:00 UTC,2445831.312500,29.6633,-93.3933,0082,10.39,6.00,12.0000,60.0000
1984-05-10 20:00:00 UTC,2445831.333333,29.6633,-93.3933,0082,12.98,5.24,14.0000,68.0000
1984-05-10 20:30:00 UTC,2445831.354167,29.6633,-93.3933,0082,14.10,5.13,15.0000,70.0000
1984-05-10 21:00:00 UTC,2445831.375000,29.6633,-93.3933,0082,13.16,4.79,14.0000,70.0000
1984-05-10 21:30:00 UTC,2445831.395833,29.6633,-93.3933,0082,12.22,4.45,13.0000,70.0000
1984-05-10 22:00:00 UTC,2445831.416667,29.6633,-93.3933,0082,12.05,4.87,13.0000,68.0000
1984-05-10 22:30:00 UTC,2445831.437500,29.6633,-93.3933,0082,12.47,6.36,14.0000,63.0000
1984-05-10 23:00:00 UTC,2445831.458333,29.6633,-93.3933,0082,12.24,6.79,14.0000,61.0000
1984-05-10 23:30:00 UTC,2445831.479167,29.6633,-93.3933,0082,12.12,7.00,14.0000,60.0000
1984-05-11 00:00:00 UTC,2445831.500000,29.6633,-93.3933,0082,12.00,7.21,14.0000,59.0000
1984-05-11 00:30:00 UTC,2445831.520833,29.6633,-93.3933,0082,10.90,7.08,13.0000,57.0000
1984-05-11 01:00:00 UTC,2445831.541667,29.6633,-93.3933,0082,9.12,6.15,11.0000,56.0000
1984-05-11 01:30:00 UTC,2445831.562500,29.6633,-93.3933,0082,8.29,5.59,10.0000,56.0000
1984-05-11 02:00:00 UTC,2445831.583333,29.6633,-93.3933,0082,6.47,4.70,8.0000,54.0000
1984-05-11 02:30:00 UTC,2445831.604167,29.6633,-93.3933,0082,3.77,3.28,5.0000,49.0000
1984-05-11 03:00:00 UTC,2445831.625000,29.6633,-93.3933,0082,2.36,1.85,3.0000,52.0000
1984-05-11 03:30:00 UTC,2445831.645833,29.6633,-93.3933,0082,1.89,0.65,2.0000,71.0000
1984-05-11 04:00:00 UTC,2445831.666667,29.6633,-93.3933,0082,0.83,-0.56,1.0000,124.0000
1984-05-11 04:30:00 UTC,2445831.687500,29.6633,-93.3933,0082,0.94,-1.77,2.0000,152.0000
1984-05-11 05:00:00 UTC,2445831.708333,29.6633,-93.3933,0082,1.30,-3.78,4.0000,161.0000
1984-05-11 05:30:00 UTC,2445831.729167,29.6633,-93.3933,0082,1.34,-6.87,7.0000,169.0000
1984-05-11 06:00:00 UTC,2445831.750000,29.6633,-93.3933,0082,0.78,-8.97,9.0000,175.0000
1984-05-11 06:30:00 UTC,2445831.770833,29.6633,-93.3933,0082,0.17,-10.00,10.0000,179.0000
1984-05-11 07:00:00 UTC,2445831.791667,29.6633,-93.3933,0082,-0.42,-11.99,12.0000,182.0000
1984-05-11 07:30:00 UTC,2445831.812500,29.6633,-93.3933,0082,-1.71,-13.90,14.0000,187.0000
1984-05-11 08:00:00 UTC,2445831.833333,29.6633,-93.3933,0082,-4.41,-15.38,16.0000,196.0000
1984-05-11 08:30:00 UTC,2445831.854167,29.6633,-93.3933,0082,-6.81,-13.37,15.0000,207.0000
1984-05-11 09:00:00 UTC,2445831.875000,29.6633,-93.3933,0082,-6.16,-7.88,10.0000,218.0000
1984-05-11 09:30:00 UTC,2445831.895833,29.6633,-93.3933,0082,-5.48,-2.44,6.0000,246.0000
1984-05-11 10:00:00 UTC,2445831.916667,29.6633,-93.3933,0082,-5.99,0.42,6.0000,274.0000
1984-05-11 10:30:00 UTC,2445831.937500,29.6633,-93.3933,0082,-6.69,2.05,7.0000,287.0000
1984-05-11 11:00:00 UTC,2445831.958333,29.6633,-93.3933,0082,-5.87,3.81,7.0000,303.0000
1984-05-11 11:30:00 UTC,2445831.979167,29.6633,-93.3933,0082,-8.09,5.88,10.0000,306.0000
1984-05-11 12:00:00 UTC,2445832.000000,29.6633,-93.3933,0082,-10.06,6.54,12.0000,303.0000
1984-05-11 12:30:00 UTC,2445832.020833,29.6633,-93.3933,0082,-9.95,6.71,12.0000,304.0000
1984-05-11 13:00:00 UTC,2445832.041667,29.6633,-93.3933,0082,-9.35,9.03,13.0000,314.0000
1984-05-11 13:30:00 UTC,2445832.062500,29.6633,-93.3933,0082,-8.03,11.47,14.0000,325.0000
1984-05-11 14:00:00 UTC,2445832.083333,29.6633,-93.3933,0082,-6.50,11.26,13.0000,330.0000
1984-05-11 14:30:00 UTC,2445832.104167,29.6633,-93.3933,0082,-7.83,11.61,14.0000,326.0000
1984-05-11 15:00:00 UTC,2445832.125000,29.6633,-93.3933,0082,-11.38,12.63,17.0000,318.0000
1984-05-11 15:30:00 UTC,2445832.145833,29.6633,-93.3933,0082,-13.90,12.96,19.0000,313.0000
1984-05-11 16:00:00 UTC,2445832.166667,29.6633,-93.3933,0082,-14.77,11.96,19.0000,309.0000
1984-05-11 16:30:00 UTC,2445832.187500,29.6633,-93.3933,0082,-14.56,10.58,18.0000,306.0000
1984-05-11 17:00:00 UTC,2445832.208333,29.6633,-93.3933,0082,-13.11,9.18,16.0000,305.0000
1984-05-11 17:30:00 UTC,2445832.229167,29.6633,-93.3933,0082,-10.65,7.46,13.0000,305.0000
1984-05-11 18:00:00 UTC,2445832.250000,29.6633,-93.3933,0082,-9.33,5.83,11.0000,302.0000
1984-05-11 18:30:00 UTC,2445832.270833,29.6633,-93.3933,0082,-8.02,4.09,9.0000,297.0000
1984-05-11 19:00:00 UTC,2445832.291667,29.6633,-93.3933,0082,-7.47,2.87,8.0000,291.0000
1984-05-11 19:30:00 UTC,2445832.312500,29.6633,-93.3933,0082,-5.89,1.14,6.0000,281.0000
1984-05-11 20:00:00 UTC,2445832.333333,29.6633,-93.3933,0082,-5.98,-0.52,6.0000,265.0000
1984-05-11 20:30:00 UTC,2445832.354167,29.6633,-93.3933,0082,-5.48,-2.44,6.0000,246.0000
1984-05-11 21:00:00 UTC,2445832.375000,29.6633,-93.3933,0082,-4.91,-3.44,6.0000,235.0000
1984-05-11 21:30:00 UTC,2445832.395833,29.6633,-93.3933,0082,-4.53,-3.94,6.0000,229.0000
1984-05-11 22:00:00 UTC,2445832.416667,29.6633,-93.3933,0082,-3.27,-5.03,6.0000,213.0000
1984-05-11 22:30:00 UTC,2445832.437500,29.6633,-93.3933,0082,-1.81,-6.76,7.0000,195.0000
1984-05-11 23:00:00 UTC,2445832.458333,29.6633,-93.3933,0082,-1.11,-7.92,8.0000,188.0000
1984-05-11 23:30:00 UTC,2445832.479167,29.6633,-93.3933,0082,-0.73,-6.96,7.0000,186.0000
1984-05-12 00:00:00 UTC,2445832.500000,29.6633,-93.3933,0082,-0.73,-6.96,7.0000,186.0000
1984-05-12 00:30:00 UTC,2445832.520833,29.6633,-93.3933,0082,-0.85,-6.95,7.0000,187.0000
1984-05-12 01:00:00 UTC,2445832.541667,29.6633,-93.3933,0082,-1.25,-7.90,8.0000,189.0000
1984-05-12 01:30:00 UTC,2445832.562500,29.6633,-93.3933,0082,-1.10,-8.93,9.0000,187.0000
1984-05-12 02:00:00 UTC,2445832.583333,29.6633,-93.3933,0082,-0.63,-8.98,9.0000,184.0000
1984-05-12 02:30:00 UTC,2445832.604167,29.6633,-93.3933,0082,-0.63,-8.98,9.0000,184.0000
1984-05-12 03:00:00 UTC,2445832.625000,29.6633,-93.3933,0082,-0.42,-7.99,8.0000,183.0000
1984-05-12 03:30:00 UTC,2445832.645833,29.6633,-93.3933,0082,0.00,-7.00,7.0000,180.0000
1984-05-12 04:00:00 UTC,2445832.666667,29.6633,-93.3933,0082,0.07,-4.00,4.0000,179.0000
1984-05-12 04:30:00 UTC,2445832.687500,29.6633,-93.3933,0082,0.02,-1.00,1.0000,179.0000
1984-05-12 05:00:00 UTC,2445832.708333,29.6633,-93.3933,0082,-0.00,-0.00,0.0000,184.0000
1984-05-12 05:30:00 UTC,2445832.729167,29.6633,-93.3933,0082,-0.38,-1.96,2.0000,191.0000
1984-05-12 06:00:00 UTC,2445832.750000,29.6633,-93.3933,0082,-0.76,-3.93,4.0000,191.0000
1984-05-12 06:30:00 UTC,2445832.770833,29.6633,-93.3933,0082,-0.42,-3.98,4.0000,186.0000
1984-05-12 07:00:00 UTC,2445832.791667,29.6633,-93.3933,0082,0.35,-3.98,4.0000,175.0000
1984-05-12 07:30:00 UTC,2445832.812500,29.6633,-93.3933,0082,1.46,-4.78,5.0000,163.0000
1984-05-12 08:00:00 UTC,2445832.833333,29.6633,-93.3933,0082,2.28,-6.62,7.0000,161.0000
1984-05-12 08:30:00 UTC,2445832.854167,29.6633,-93.3933,0082,1.66,-7.83,8.0000,168.0000
1984-05-12 09:00:00 UTC,2445832.875000,29.6633,-93.3933,0082,1.11,-7.92,8.0000,172.0000
1984-05-12 09:30:00 UTC,2445832.895833,29.6633,-93.3933,0082,2.47,-7.61,8.0000,162.0000
1984-05-12 10:00:00 UTC,2445832.916667,29.6633,-93.3933,0082,4.81,-6.39,8.0000,143.0000
1984-05-12 10:30:00 UTC,2445832.937500,29.6633,-93.3933,0082,6.93,-4.00,8.0000,120.0000
1984-05-12 11:00:00 UTC,2445832.958333,29.6633,-93.3933,0082,7.96,-0.84,8.0000,96.0000
1984-05-12 11:30:00 UTC,2445832.979167,29.6633,-93.3933,0082,9.27,3.75,10.0000,68.0000
1984-05-12 12:00:00 UTC,2445833.000000,29.6633,-93.3933,0082,9.96,8.36,13.0000,50.0000
1984-05-12 12:30:00 UTC,2445833.020833,29.6633,-93.3933,0082,12.83,11.15,17.0000,49.0000
1984-05-12 13:00:00 UTC,2445833.041667,29.6633,-93.3933,0082,16.58,11.18,20.0000,56.0000
1984-05-12 13:30:00 UTC,2445833.062500,29.6633,-93.3933,0082,19.42,10.33,22.0000,62.0000
1984-05-12 14:00:00 UTC,2445833.083333,29.6633,-93.3933,0082,21.75,10.14,24.0000,65.0000
1984-05-12 14:30:00 UTC,2445833.104167,29.6633,-93.3933,0082,21.75,10.14,24.0000,65.0000
1984-05-12 15:00:00 UTC,2445833.125000,29.6633,-93.3933,0082,21.19,11.27,24.0000,62.0000
1984-05-12 15:30:00 UTC,2445833.145833,29.6633,-93.3933,0082,18.45,11.98,22.0000,57.0000
1984-05-12 16:00:00 UTC,2445833.166667,29.6633,-93.3933,0082,13.58,11.81,18.0000,49.0000
1984-05-12 16:30:00 UTC,2445833.187500,29.6633,-93.3933,0082,7.62,11.74,14.0000,33.0000
1984-05-12 17:00:00 UTC,2445833.208333,29.6633,-93.3933,0082,2.49,11.74,12.0000,12.0000
1984-05-12 17:30:00 UTC,2445833.229167,29.6633,-93.3933,0082,1.13,12.95,13.0000,5.0000
1984-05-12 18:00:00 UTC,2445833.250000,29.6633,-93.3933,0082,3.15,13.64,14.0000,13.0000
1984-05-12 18:30:00 UTC,2445833.270833,29.6633,-93.3933,0082,5.92,12.69,14.0000,25.0000
1984-05-12 19:00:00 UTC,2445833.291667,29.6633,-93.3933,0082,8.62,11.03,14.0000,38.0000
1984-05-12 19:30:00 UTC,2445833.312500,29.6633,-93.3933,0082,11.33,8.23,14.0000,54.0000
1984-05-12 20:00:00 UTC,2445833.333333,29.6633,-93.3933,0082,13.46,3.86,14.0000,74.0000
1984-05-12 20:30:00 UTC,2445833.354167,29.6633,-93.3933,0082,14.96,-1.05,15.0000,94.0000
1984-05-12 21:00:00 UTC,2445833.375000,29.6633,-93.3933,0082,16.42,-4.40,17.0000,105.0000
1984-05-12 21:30:00 UTC,2445833.395833,29.6633,-93.3933,0082,18.67,-7.17,20.0000,111.0000
1984-05-12 22:00:00 UTC,2445833.416667,29.6633,-93.3933,0082,22.66,-10.57,25.0000,115.0000
1984-05-12 22:30:00 UTC,2445833.437500,29.6633,-93.3933,0082,25.36,-14.06,29.0000,119.0000
1984-05-12 23:00:00 UTC,2445833.458333,29.6633,-93.3933,0082,26.57,-15.97,31.0000,121.0000
1984-05-12 23:30:00 UTC,2445833.479167,29.6633,-93.3933,0082,27.99,-17.49,33.0000,122.0000
1984-05-13 00:00:00 UTC,2445833.500000,29.6633,-93.3933,0082,26.53,-17.89,32.0000,124.0000
1984-05-13 00:30:00 UTC,2445833.520833,29.6633,-93.3933,0082,22.65,-16.46,28.0000,126.0000
1984-05-13 01:00:00 UTC,2445833.541667,29.6633,-93.3933,0082,17.87,-14.47,23.0000,129.0000
1984-05-13 01:30:00 UTC,2445833.562500,29.6633,-93.3933,0082,14.14,-14.14,20.0000,135.0000
1984-05-13 02:00:00 UTC,2445833.583333,29.6633,-93.3933,0082,10.28,-12.26,16.0000,140.0000
1984-05-13 02:30:00 UTC,2445833.604167,29.6633,-93.3933,0082,8.00,-10.24,13.0000,142.0000
1984-05-13 03:00:00 UTC,2445833.625000,29.6633,-93.3933,0082,6.31,-9.01,11.0000,145.0000
1984-05-13 03:30:00 UTC,2445833.645833,29.6633,-93.3933,0082,3.95,-8.09,9.0000,154.0000
1984-05-13 04:00:00 UTC,2445833.666667,29.6633,-93.3933,0082,1.25,-5.87,6.0000,168.0000
1984-05-13 04:30:00 UTC,2445833.687500,29.6633,-93.3933,0082,-1.75,-5.74,6.0000,197.0000
1984-05-13 05:00:00 UTC,2445833.708333,29.6633,-93.3933,0082,-5.66,-6.99,9.0000,219.0000
1984-05-13 05:30:00 UTC,2445833.729167,29.6633,-93.3933,0082,-8.90,-6.47,11.0000,234.0000
1984-05-13 06:00:00 UTC,2445833.750000,29.6633,-93.3933,0082,-11.68,-5.70,13.0000,244.0000
1984-05-13 06:30:00 UTC,2445833.770833,29.6633,-93.3933,0082,-13.81,-5.86,15.0000,247.0000
1984-05-13 07:00:00 UTC,2445833.791667,29.6633,-93.3933,0082,-13.59,-6.34,15.0000,245.0000
1984-05-13 07:30:00 UTC,2445833.812500,29.6633,-93.3933,0082,-11.48,-6.10,13.0000,242.0000
1984-05-13 08:00:00 UTC,2445833.833333,29.6633,-93.3933,0082,-8.02,-4.09,9.0000,243.0000
1984-05-13 08:30:00 UTC,2445833.854167,29.6633,-93.3933,0082,-3.83,-1.17,4.0000,253.0000
1984-05-13 09:00:00 UTC,2445833.875000,29.6633,-93.3933,0082,-2.98,0.31,3.0000,276.0000
1984-05-13 09:30:00 UTC,2445833.895833,29.6633,-93.3933,0082,-5.99,0.31,6.0000,273.0000
1984-05-13 10:00:00 UTC,2445833.916667,29.6633,-93.3933,0082,-9.95,1.05,10.0000,276.0000
1984-05-13 10:30:00 UTC,2445833.937500,29.6633,-93.3933,0082,-10.86,1.72,11.0000,279.0000
1984-05-13 11:00:00 UTC,2445833.958333,29.6633,-93.3933,0082,-11.69,2.70,12.0000,283.0000
1984-05-13 11:30:00 UTC,2445833.979167,29.6633,-93.3933,0082,-10.20,4.12,11.0000,292.0000
1984-05-13 12:00:00 UTC,2445834.000000,29.6633,-93.3933,0082,-8.39,5.45,10.0000,303.0000
1984-05-13 12:30:00 UTC,2445834.020833,29.6633,-93.3933,0082,-7.66,6.43,10.0000,310.0000
1984-05-13 13:00:00 UTC,2445834.041667,29.6633,-93.3933,0082,-7.50,8.04,11.0000,317.0000
1984-05-13 13:30:00 UTC,2445834.062500,29.6633,-93.3933,0082,-7.22,9.58,12.0000,323.0000
1984-05-13 14:00:00 UTC,2445834.083333,29.6633,-93.3933,0082,-7.05,9.71,12.0000,324.0000
1984-05-13 14:30:00 UTC,2445834.104167,29.6633,-93.3933,0082,-6.88,9.83,12.0000,325.0000
1984-05-13 15:00:00 UTC,2445834.125000,29.6633,-93.3933,0082,-6.47,8.90,11.0000,324.0000
1984-05-13 15:30:00 UTC,2445834.145833,29.6633,-93.3933,0082,-6.16,7.88,10.0000,322.0000
1984-05-13 16:00:00 UTC,2445834.166667,29.6633,-93.3933,0082,-6.92,8.55,11.0000,321.0000
1984-05-13 16:30:00 UTC,2445834.187500,29.6633,-93.3933,0082,-7.07,7.07,10.0000,315.0000
1984-05-13 17:00:00 UTC,2445834.208333,29.6633,-93.3933,0082,-8.09,5.88,10.0000,306.0000
1984-05-13 17:30:00 UTC,2445834.229167,29.6633,-93.3933,0082,-7.79,4.50,9.0000,300.0000
1984-05-13 18:00:00 UTC,2445834.250000,29.6633,-93.3933,0082,-7.42,3.00,8.0000,292.0000
1984-05-13 18:30:00 UTC,2445834.270833,29.6633,-93.3933,0082,-6.87,1.34,7.0000,281.0000
1984-05-13 19:00:00 UTC,2445834.291667,29.6633,-93.3933,0082,-6.97,0.61,7.0000,275.0000
1984-05-13 19:30:00 UTC,2445834.312500,29.6633,-93.3933,0082,-7.00,-0.12,7.0000,269.0000
1984-05-13 20:00:00 UTC,2445834.333333,29.6633,-93.3933,0082,-5.96,-0.73,6.0000,263.0000
1984-05-13 20:30:00 UTC,2445834.354167,29.6633,-93.3933,0082,-4.83,-1.29,5.0000,255.0000
1984-05-13 21:00:00 UTC,2445834.375000,29.6633,-93.3933,0082,-2.33,-1.89,3.0000,231.0000
1984-05-13 21:30:00 UTC,2445834.395833,29.6633,-93.3933,0082,-0.35,-3.98,4.0000,185.0000
1984-05-13 22:00:00 UTC,2445834.416667,29.6633,-93.3933,0082,1.14,-5.89,6.0000,169.0000
1984-05-13 22:30:00 UTC,2445834.437500,29.6633,-93.3933,0082,0.70,-7.97,8.0000,175.0000
1984-05-13 23:00:00 UTC,2445834.458333,29.6633,-93.3933,0082,-1.41,-8.89,9.0000,189.0000
1984-05-13 23:30:00 UTC,2445834.479167,29.6633,-93.3933,0082,-3.26,-9.46,10.0000,199.0000
1984-05-14 00:00:00 UTC,2445834.500000,29.6633,-93.3933,0082,-4.65,-9.97,11.0000,205.0000
1984-05-14 00:30:00 UTC,2445834.520833,29.6633,-93.3933,0082,-4.64,-7.71,9.0000,211.0000
1984-05-14 01:00:00 UTC,2445834.541667,29.6633,-93.3933,0082,-3.78,-4.66,6.0000,219.0000
1984-05-14 01:30:00 UTC,2445834.562500,29.6633,-93.3933,0082,-2.97,-2.68,4.0000,228.0000
1984-05-14 02:00:00 UTC,2445834.583333,29.6633,-93.3933,0082,-2.65,-1.41,3.0000,242.0000
1984-05-14 02:30:00 UTC,2445834.604167,29.6633,-93.3933,0082,-4.60,-1.95,5.0000,247.0000
1984-05-14 03:00:00 UTC,2445834.625000,29.6633,-93.3933,0082,-6.73,-1.93,7.0000,254.0000
1984-05-14 03:30:00 UTC,2445834.645833,29.6633,-93.3933,0082,-6.89,-1.22,7.0000,260.0000
1984-05-14 04:00:00 UTC,2445834.666667,29.6633,-93.3933,0082,-6.69,-2.05,7.0000,253.0000
1984-05-14 04:30:00 UTC,2445834.687500,29.6633,-93.3933,0082,-7.31,-3.25,8.0000,246.0000
1984-05-14 05:00:00 UTC,2445834.708333,29.6633,-93.3933,0082,-8.28,-3.52,9.0000,247.0000
1984-05-14 05:30:00 UTC,2445834.729167,29.6633,-93.3933,0082,-9.21,-3.91,10.0000,247.0000
1984-05-14 06:00:00 UTC,2445834.750000,29.6633,-93.3933,0082,-10.13,-4.30,11.0000,247.0000
1984-05-14 06:30:00 UTC,2445834.770833,29.6633,-93.3933,0082,-10.27,-3.94,11.0000,249.0000
1984-05-14 07:00:00 UTC,2445834.791667,29.6633,-93.3933,0082,-9.21,-3.91,10.0000,247.0000
1984-05-14 07:30:00 UTC,2445834.812500,29.6633,-93.3933,0082,-5.35,-2.72,6.0000,243.0000
1984-05-14 08:00:00 UTC,2445834.833333,29.6633,-93.3933,0082,-0.26,0.97,1.0000,345.0000
1984-05-14 08:30:00 UTC,2445834.854167,29.6633,-93.3933,0082,2.80,4.15,5.0000,34.0000
1984-05-14 09:00:00 UTC,2445834.875000,29.6633,-93.3933,0082,1.81,2.40,3.0000,37.0000
1984-05-14 09:30:00 UTC,2445834.895833,29.6633,-93.3933,0082,0.48,0.87,1.0000,29.0000
1984-05-14 10:00:00 UTC,2445834.916667,29.6633,-93.3933,0082,0.86,0.52,1.0000,59.0000
1984-05-14 10:30:00 UTC,2445834.937500,29.6633,-93.3933,0082,4.00,0.07,4.0000,89.0000
1984-05-14 11:00:00 UTC,2445834.958333,29.6633,-93.3933,0082,4.33,-2.50,5.0000,120.0000
1984-05-14 11:30:00 UTC,2445834.979167,29.6633,-93.3933,0082,1.75,-5.74,6.0000,163.0000
1984-05-14 12:00:00 UTC,2445835.000000,29.6633,-93.3933,0082,-1.04,-5.91,6.0000,190.0000
1984-05-14 12:30:00 UTC,2445835.020833,29.6633,-93.3933,0082,-0.26,-4.99,5.0000,183.0000
1984-05-14 13:00:00 UTC,2445835.041667,29.6633,-93.3933,0082,1.10,-3.85,4.0000,164.0000
1984-05-14 13:30:00 UTC,2445835.062500,29.6633,-93.3933,0082,1.18,-1.62,2.0000,144.0000
1984-05-14 14:00:00 UTC,2445835.083333,29.6633,-93.3933,0082,0.91,-0.41,1.0000,114.0000
1984-05-14 14:30:00 UTC,2445835.104167,29.6633,-93.3933,0082,0.00,0.00,0.0000,76.0000
1984-05-14 15:00:00 UTC,2445835.125000,29.6633,-93.3933,0082,0.69,0.72,1.0000,44.0000
1984-05-14 15:30:00 UTC,2445835.145833,29.6633,-93.3933,0082,1.58,1.23,2.0000,52.0000
1984-05-14 16:00:00 UTC,2445835.166667,29.6633,-93.3933,0082,4.29,2.58,5.0000,59.0000
1984-05-14 16:30:00 UTC,2445835.187500,29.6633,-93.3933,0082,7.42,3.00,8.0000,68.0000
1984-05-14 17:00:00 UTC,2445835.208333,29.6633,-93.3933,0082,9.61,2.76,10.0000,74.0000
1984-05-14 17:30:00 UTC,2445835.229167,29.6633,-93.3933,0082,9.74,2.25,10.0000,77.0000
1984-05-14 18:00:00 UTC,2445835.250000,29.6633,-93.3933,0082,8.89,1.41,9.0000,81.0000
1984-05-14 18:30:00 UTC,2445835.270833,29.6633,-93.3933,0082,8.00,0.28,8.0000,88.0000
1984-05-14 19:00:00 UTC,2445835.291667,29.6633,-93.3933,0082,6.95,-0.85,7.0000,97.0000
1984-05-14 19:30:00 UTC,2445835.312500,29.6633,-93.3933,0082,8.02,-4.09,9.0000,117.0000
1984-05-14 20:00:00 UTC,2445835.333333,29.6633,-93.3933,0082,9.58,-7.22,12.0000,127.0000
1984-05-14 20:30:00 UTC,2445835.354167,29.6633,-93.3933,0082,11.49,-9.64,15.0000,130.0000
1984-05-14 21:00:00 UTC,2445835.375000,29.6633,-93.3933,0082,11.70,-10.91,16.0000,133.0000
1984-05-14 21:30:00 UTC,2445835.395833,29.6633,-93.3933,0082,12.50,-12.95,18.0000,136.0000
1984-05-14 22:00:00 UTC,2445835.416667,29.6633,-93.3933,0082,12.04,-15.97,20.0000,143.0000
1984-05-14 22:30:00 UTC,2445835.437500,29.6633,-93.3933,0082,9.70,-17.49,20.0000,151.0000
1984-05-14 23:00:00 UTC,2445835.458333,29.6633,-93.3933,0082,7.18,-19.73,21.0000,160.0000
1984-05-14 23:30:00 UTC,2445835.479167,29.6633,-93.3933,0082,4.95,-21.44,22.0000,167.0000
1984-05-15 00:00:00 UTC,2445835.500000,29.6633,-93.3933,0082,2.56,-20.84,21.0000,173.0000
1984-05-15 00:30:00 UTC,2445835.520833,29.6633,-93.3933,0082,0.33,-19.00,19.0000,179.0000
1984-05-15 01:00:00 UTC,2445835.541667,29.6633,-93.3933,0082,-0.94,-17.98,18.0000,183.0000
1984-05-15 01:30:00 UTC,2445835.562500,29.6633,-93.3933,0082,0.00,-15.00,15.0000,180.0000
1984-05-15 02:00:00 UTC,2445835.583333,29.6633,-93.3933,0082,1.53,-10.89,11.0000,172.0000
1984-05-15 02:30:00 UTC,2445835.604167,29.6633,-93.3933,0082,2.15,-5.60,6.0000,159.0000
1984-05-15 03:00:00 UTC,2445835.625000,29.6633,-93.3933,0082,1.93,0.52,2.0000,75.0000
1984-05-15 03:30:00 UTC,2445835.645833,29.6633,-93.3933,0082,2.87,4.10,5.0000,35.0000
1984-05-15 04:00:00 UTC,2445835.666667,29.6633,-93.3933,0082,3.61,4.79,6.0000,37.0000
1984-05-15 04:30:00 UTC,2445835.687500,29.6633,-93.3933,0082,2.41,3.19,4.0000,37.0000
1984-05-15 05:00:00 UTC,2445835.708333,29.6633,-93.3933,0082,1.03,2.82,3.0000,20.0000
1984-05-15 05:30:00 UTC,2445835.729167,29.6633,-93.3933,0082,0.21,2.99,3.0000,4.0000
1984-05-15 06:00:00 UTC,2445835.750000,29.6633,-93.3933,0082,0.03,2.00,2.0000,1.0000
1984-05-15 06:30:00 UTC,2445835.770833,29.6633,-93.3933,0082,0.00,0.00,0.0000,4.0000
1984-05-15 07:00:00 UTC,2445835.791667,29.6633,-93.3933,0082,-0.00,-0.00,0.0000,193.0000
1984-05-15 07:30:00 UTC,2445835.812500,29.6633,-93.3933,0082,-0.00,-0.00,0.0000,207.0000
1984-05-15 08:00:00 UTC,2445835.833333,29.6633,-93.3933,0082,-0.00,-0.00,0.0000,207.0000
1984-05-15 08:30:00 UTC,2445835.854167,29.6633,-93.3933,0082,-0.00,0.00,0.0000,287.0000
1984-05-15 09:00:00 UTC,2445835.875000,29.6633,-93.3933,0082,-0.02,1.00,1.0000,359.0000
1984-05-15 09:30:00 UTC,2445835.895833,29.6633,-93.3933,0082,0.31,1.98,2.0000,9.0000
1984-05-15 10:00:00 UTC,2445835.916667,29.6633,-93.3933,0082,1.12,1.66,2.0000,34.0000
1984-05-15 10:30:00 UTC,2445835.937500,29.6633,-93.3933,0082,3.96,0.56,4.0000,82.0000
1984-05-15 11:00:00 UTC,2445835.958333,29.6633,-93.3933,0082,5.94,-0.84,6.0000,98.0000
1984-05-15 11:30:00 UTC,2445835.979167,29.6633,-93.3933,0082,6.91,-1.10,7.0000,99.0000
1984-05-15 12:00:00 UTC,2445836.000000,29.6633,-93.3933,0082,6.99,-0.37,7.0000,93.0000
1984-05-15 12:30:00 UTC,2445836.020833,29.6633,-93.3933,0082,8.83,1.72,9.0000,79.0000
1984-05-15 13:00:00 UTC,2445836.041667,29.6633,-93.3933,0082,10.20,4.12,11.0000,68.0000
1984-05-15 13:30:00 UTC,2445836.062500,29.6633,-93.3933,0082,11.97,5.08,13.0000,67.0000
1984-05-15 14:00:00 UTC,2445836.083333,29.6633,-93.3933,0082,13.16,4.79,14.0000,70.0000
1984-05-15 14:30:00 UTC,2445836.104167,29.6633,-93.3933,0082,13.16,4.79,14.0000,70.0000
1984-05-15 15:00:00 UTC,2445836.125000,29.6633,-93.3933,0082,12.05,4.87,13.0000,68.0000
1984-05-15 15:30:00 UTC,2445836.145833,29.6633,-93.3933,0082,10.50,5.82,12.0000,61.0000
1984-05-15 16:00:00 UTC,2445836.166667,29.6633,-93.3933,0082,8.75,4.85,10.0000,61.0000
1984-05-15 16:30:00 UTC,2445836.187500,29.6633,-93.3933,0082,7.00,3.88,8.0000,61.0000
1984-05-15 17:00:00 UTC,2445836.208333,29.6633,-93.3933,0082,6.04,5.25,8.0000,49.0000
1984-05-15 17:30:00 UTC,2445836.229167,29.6633,-93.3933,0082,5.46,5.85,8.0000,43.0000
1984-05-15 18:00:00 UTC,2445836.250000,29.6633,-93.3933,0082,4.95,4.95,7.0000,45.0000
1984-05-15 18:30:00 UTC,2445836.270833,29.6633,-93.3933,0082,4.09,4.39,6.0000,43.0000
1984-05-15 19:00:00 UTC,2445836.291667,29.6633,-93.3933,0082,2.57,3.06,4.0000,40.0000
1984-05-15 19:30:00 UTC,2445836.312500,29.6633,-93.3933,0082,1.81,2.40,3.0000,37.0000
1984-05-15 20:00:00 UTC,2445836.333333,29.6633,-93.3933,0082,1.26,1.55,2.0000,39.0000
1984-05-15 20:30:00 UTC,2445836.354167,29.6633,-93.3933,0082,0.82,0.57,1.0000,55.0000
1984-05-15 21:00:00 UTC,2445836.375000,29.6633,-93.3933,0082,0.94,0.34,1.0000,70.0000
1984-05-15 21:30:00 UTC,2445836.395833,29.6633,-93.3933,0082,1.94,0.48,2.0000,76.0000
1984-05-15 22:00:00 UTC,2445836.416667,29.6633,-93.3933,0082,4.00,0.07,4.0000,89.0000
1984-05-15 22:30:00 UTC,2445836.437500,29.6633,-93.3933,0082,5.85,-1.35,6.0000,103.0000
1984-05-15 23:00:00 UTC,2445836.458333,29.6633,-93.3933,0082,6.62,-2.28,7.0000,109.0000
1984-05-15 23:30:00 UTC,2445836.479167,29.6633,-93.3933,0082,5.56,-2.25,6.0000,112.0000
1984-05-16 00:00:00 UTC,2445836.500000,29.6633,-93.3933,0082,5.20,-3.00,6.0000,120.0000
1984-05-16 00:30:00 UTC,2445836.520833,29.6633,-93.3933,0082,4.73,-3.69,6.0000,128.0000
1984-05-16 01:00:00 UTC,2445836.541667,29.6633,-93.3933,0082,5.36,-4.50,7.0000,130.0000
1984-05-16 01:30:00 UTC,2445836.562500,29.6633,-93.3933,0082,4.73,-3.69,6.0000,128.0000
1984-05-16 02:00:00 UTC,2445836.583333,29.6633,-93.3933,0082,3.60,-1.75,4.0000,116.0000
1984-05-16 02:30:00 UTC,2445836.604167,29.6633,-93.3933,0082,1.87,0.72,2.0000,69.0000
1984-05-16 03:00:00 UTC,2445836.625000,29.6633,-93.3933,0082,2.24,3.32,4.0000,34.0000
1984-05-16 03:30:00 UTC,2445836.645833,29.6633,-93.3933,0082,1.79,4.67,5.0000,21.0000
1984-05-16 04:00:00 UTC,2445836.666667,29.6633,-93.3933,0082,0.17,5.00,5.0000,2.0000
1984-05-16 04:30:00 UTC,2445836.687500,29.6633,-93.3933,0082,-1.71,4.70,5.0000,340.0000
1984-05-16 05:00:00 UTC,2445836.708333,29.6633,-93.3933,0082,-2.15,5.60,6.0000,339.0000
1984-05-16 05:30:00 UTC,2445836.729167,29.6633,-93.3933,0082,-1.71,4.70,5.0000,340.0000
1984-05-16 06:00:00 UTC,2445836.750000,29.6633,-93.3933,0082,-1.27,2.72,3.0000,335.0000
1984-05-16 06:30:00 UTC,2445836.770833,29.6633,-93.3933,0082,-1.36,2.67,3.0000,333.0000
1984-05-16 07:00:00 UTC,2445836.791667,29.6633,-93.3933,0082,-0.75,1.85,2.0000,338.0000
1984-05-16 07:30:00 UTC,2445836.812500,29.6633,-93.3933,0082,-1.20,1.60,2.0000,323.0000